UAL2463 KRDU-KIAD

Flight info

Callsign UAL2463
Flight time 0h 39m
Altitude 29000
Route OXFRD5 CARML DORRN CAVLR6
Aircraft B737/M-SDE2E3FGHIRWXY/LB1

Departure

Time 2026-05-07 00:44
Airport Raleigh-Durham International Airport (KRDU)

Arrival

Time 2026-05-07 01:24
Airport Washington Dulles International Airport (KIAD)
Time Latitude Longitude Altitude Speed Heading
2026-05-07 00:14 35.87612 -78.79594 390 ft 0 kts 135°
2026-05-07 00:30 35.87641 -78.79633 390 ft 4 kts 117°
2026-05-07 00:30 35.87645 -78.79657 390 ft 3 kts 50°
2026-05-07 00:30 35.87643 -78.79660 390 ft 2 kts 46°
2026-05-07 00:34 35.87644 -78.79659 390 ft 1 kts 46°
2026-05-07 00:35 35.87656 -78.79643 390 ft 5 kts 46°
2026-05-07 00:35 35.87702 -78.79586 391 ft 15 kts 44°
2026-05-07 00:35 35.87781 -78.79489 391 ft 18 kts 45°
2026-05-07 00:35 35.87877 -78.79369 391 ft 20 kts 45°
2026-05-07 00:36 35.87976 -78.79248 391 ft 20 kts 44°
2026-05-07 00:36 35.88071 -78.79130 391 ft 19 kts 46°
2026-05-07 00:36 35.88161 -78.79014 390 ft 18 kts 45°
2026-05-07 00:36 35.88250 -78.78905 390 ft 18 kts 45°
2026-05-07 00:37 35.88336 -78.78799 390 ft 17 kts 45°
2026-05-07 00:37 35.88418 -78.78697 390 ft 16 kts 45°
2026-05-07 00:37 35.88497 -78.78599 391 ft 16 kts 45°
2026-05-07 00:37 35.88573 -78.78505 391 ft 15 kts 45°
2026-05-07 00:38 35.88647 -78.78414 391 ft 15 kts 45°
2026-05-07 00:38 35.88717 -78.78328 391 ft 14 kts 45°
2026-05-07 00:38 35.88788 -78.78241 391 ft 17 kts 45°
2026-05-07 00:38 35.88885 -78.78121 391 ft 20 kts 45°
2026-05-07 00:39 35.88973 -78.77992 390 ft 19 kts 68°
2026-05-07 00:39 35.89037 -78.77852 391 ft 19 kts 45°
2026-05-07 00:39 35.89128 -78.77740 391 ft 18 kts 45°
2026-05-07 00:39 35.89208 -78.77648 391 ft 12 kts 25°
2026-05-07 00:40 35.89273 -78.77693 391 ft 11 kts 315°
2026-05-07 00:40 35.89288 -78.77711 391 ft 2 kts 315°
2026-05-07 00:40 35.89299 -78.77725 391 ft 2 kts 315°
2026-05-07 00:40 35.89301 -78.77726 391 ft 0 kts 315°
2026-05-07 00:42 35.89301 -78.77727 391 ft 1 kts 315°
2026-05-07 00:43 35.89343 -78.77778 392 ft 15 kts 313°
2026-05-07 00:43 35.89339 -78.77862 391 ft 0 kts 225°
2026-05-07 00:43 35.89333 -78.77868 391 ft 9 kts 225°
2026-05-07 00:43 35.89129 -78.78119 389 ft 78 kts 225°
2026-05-07 00:44 35.88584 -78.78791 393 ft 138 kts 225°
2026-05-07 00:44 35.87827 -78.79735 625 ft 165 kts 225°
2026-05-07 00:44 35.86976 -78.80816 1016 ft 188 kts 227°
2026-05-07 00:44 35.86093 -78.82041 1637 ft 192 kts 230°
2026-05-07 00:45 35.85248 -78.83307 2255 ft 197 kts 232°
2026-05-07 00:45 35.84334 -78.84643 2869 ft 211 kts 231°
2026-05-07 00:45 35.83598 -78.86316 3250 ft 238 kts 258°
2026-05-07 00:45 35.83743 -78.88365 4169 ft 246 kts 288°
2026-05-07 00:46 35.84706 -78.90107 5272 ft 248 kts 308°
2026-05-07 00:46 35.85936 -78.91649 5768 ft 253 kts 310°
2026-05-07 00:46 35.87205 -78.93175 6108 ft 256 kts 310°
2026-05-07 00:46 35.88487 -78.94710 6780 ft 260 kts 310°
2026-05-07 00:47 35.89787 -78.96270 7737 ft 261 kts 310°
2026-05-07 00:47 35.91108 -78.97837 8727 ft 267 kts 313°
2026-05-07 00:47 35.92815 -78.98887 9651 ft 289 kts 344°
2026-05-07 00:47 35.94881 -78.98817 10540 ft 310 kts
2026-05-07 00:48 35.97010 -78.97821 10872 ft 347 kts 26°
2026-05-07 00:48 35.99048 -78.96093 11527 ft 360 kts 32°
2026-05-07 00:48 36.01038 -78.94204 11921 ft 363 kts 34°
2026-05-07 00:48 36.02999 -78.92286 11987 ft 367 kts 34°
2026-05-07 00:49 36.04990 -78.90338 11988 ft 364 kts 34°
2026-05-07 00:49 36.06989 -78.88402 11996 ft 365 kts 33°
2026-05-07 00:49 36.09018 -78.86461 12547 ft 372 kts 33°
2026-05-07 00:49 36.11057 -78.84520 13672 ft 369 kts 33°
2026-05-07 00:50 36.13105 -78.82579 14568 ft 373 kts 32°
2026-05-07 00:50 36.15174 -78.80624 15393 ft 379 kts 32°
2026-05-07 00:50 36.17296 -78.78619 16240 ft 385 kts 32°
2026-05-07 00:50 36.19438 -78.76594 17081 ft 391 kts 31°
2026-05-07 00:51 36.21612 -78.74537 17931 ft 396 kts 31°
2026-05-07 00:51 36.23823 -78.72443 18667 ft 403 kts 31°
2026-05-07 00:51 36.26066 -78.70316 19395 ft 408 kts 31°
2026-05-07 00:51 36.28333 -78.68162 20163 ft 412 kts 31°
2026-05-07 00:52 36.30612 -78.65996 20950 ft 415 kts 31°
2026-05-07 00:52 36.32924 -78.63800 21677 ft 420 kts 31°
2026-05-07 00:52 36.35283 -78.61627 22341 ft 422 kts 25°
2026-05-07 00:52 36.37924 -78.60191 22993 ft 411 kts
2026-05-07 00:53 36.40689 -78.59271 23701 ft 413 kts
2026-05-07 00:53 36.43482 -78.58355 24260 ft 418 kts
2026-05-07 00:53 36.46306 -78.57386 24818 ft 424 kts
2026-05-07 00:53 36.49126 -78.56387 25352 ft 429 kts
2026-05-07 00:54 36.52039 -78.55339 26031 ft 430 kts
2026-05-07 00:54 36.54858 -78.54316 26815 ft 427 kts
2026-05-07 00:54 36.57706 -78.53284 27596 ft 425 kts
2026-05-07 00:54 36.60557 -78.52256 28309 ft 426 kts
2026-05-07 00:55 36.63407 -78.51232 28886 ft 429 kts
2026-05-07 00:55 36.66285 -78.50199 28918 ft 431 kts
2026-05-07 00:55 36.72032 -78.48128 28948 ft 430 kts
2026-05-07 00:56 36.77565 -78.45070 28983 ft 445 kts 26°
2026-05-07 00:56 36.82744 -78.40774 28958 ft 447 kts 27°
2026-05-07 00:57 36.87916 -78.36456 28936 ft 447 kts 27°
2026-05-07 00:57 36.93126 -78.32182 28936 ft 448 kts 26°
2026-05-07 00:58 36.98366 -78.27916 28935 ft 450 kts 26°
2026-05-07 00:58 37.03631 -78.23628 28924 ft 452 kts 26°
2026-05-07 00:59 37.11505 -78.17193 28920 ft 453 kts 26°
2026-05-07 01:00 37.16798 -78.12858 28924 ft 456 kts 25°
2026-05-07 01:00 37.22121 -78.08492 28933 ft 458 kts 25°
2026-05-07 01:01 37.27464 -78.04100 28914 ft 460 kts 25°
2026-05-07 01:01 37.32759 -77.99732 28882 ft 443 kts 25°
2026-05-07 01:01 37.35290 -77.97637 28905 ft 428 kts 23°
2026-05-07 01:02 37.37831 -77.95984 28889 ft 396 kts
2026-05-07 01:02 37.40371 -77.94860 28886 ft 378 kts
2026-05-07 01:02 37.42820 -77.93846 28888 ft 363 kts
2026-05-07 01:02 37.45182 -77.92864 28760 ft 353 kts
2026-05-07 01:03 37.46709 -77.92215 28531 ft 348 kts
2026-05-07 01:03 37.48982 -77.91228 28104 ft 344 kts
2026-05-07 01:03 37.51967 -77.89910 27422 ft 342 kts
2026-05-07 01:03 37.54235 -77.88863 26457 ft 358 kts 10°
2026-05-07 01:04 37.56601 -77.87564 25236 ft 383 kts 13°
2026-05-07 01:04 37.58233 -77.86605 24486 ft 395 kts 14°
2026-05-07 01:04 37.60738 -77.85121 23713 ft 398 kts 14°
2026-05-07 01:04 37.63236 -77.83663 23112 ft 392 kts 13°
2026-05-07 01:05 37.65655 -77.82267 22920 ft 372 kts 13°
2026-05-07 01:05 37.67986 -77.80950 22368 ft 365 kts 12°
2026-05-07 01:05 37.70353 -77.79656 21201 ft 380 kts 13°
2026-05-07 01:05 37.72816 -77.78318 20459 ft 387 kts 13°
2026-05-07 01:06 37.75288 -77.76956 19896 ft 388 kts 14°
2026-05-07 01:06 37.77753 -77.75587 19391 ft 386 kts 14°
2026-05-07 01:06 37.80203 -77.74220 18896 ft 384 kts 14°
2026-05-07 01:06 37.82643 -77.72861 18402 ft 382 kts 14°
2026-05-07 01:07 37.85067 -77.71511 17868 ft 380 kts 15°
2026-05-07 01:07 37.87460 -77.70175 17407 ft 368 kts 15°
2026-05-07 01:07 37.89764 -77.68884 16944 ft 356 kts 15°
2026-05-07 01:07 37.92012 -77.67629 16500 ft 352 kts 15°
2026-05-07 01:08 37.94250 -77.66383 16070 ft 351 kts 15°
2026-05-07 01:08 37.96492 -77.65137 15637 ft 353 kts 16°
2026-05-07 01:08 37.98752 -77.63878 15186 ft 355 kts 16°
2026-05-07 01:08 38.01007 -77.62616 14749 ft 353 kts 17°
2026-05-07 01:09 38.03248 -77.61360 14301 ft 351 kts 17°
2026-05-07 01:09 38.05434 -77.60128 14344 ft 340 kts 17°
2026-05-07 01:09 38.07584 -77.58837 14191 ft 343 kts 20°
2026-05-07 01:09 38.09712 -77.57464 13889 ft 342 kts 21°
2026-05-07 01:10 38.11837 -77.56087 13372 ft 343 kts 21°
2026-05-07 01:10 38.13970 -77.54720 12829 ft 344 kts 21°
2026-05-07 01:10 38.16097 -77.53363 12386 ft 341 kts 21°
2026-05-07 01:10 38.18205 -77.52017 11955 ft 338 kts 21°
2026-05-07 01:11 38.20274 -77.50693 11525 ft 336 kts 21°
2026-05-07 01:11 38.22374 -77.49349 11249 ft 329 kts 21°
2026-05-07 01:11 38.24393 -77.48112 11137 ft 314 kts 15°
2026-05-07 01:11 38.26430 -77.47305 10925 ft 302 kts
2026-05-07 01:12 38.28411 -77.46656 10476 ft 297 kts
2026-05-07 01:12 38.30453 -77.46066 9846 ft 297 kts
2026-05-07 01:12 38.32459 -77.45586 9311 ft 294 kts
2026-05-07 01:12 38.34454 -77.45164 8994 ft 287 kts
2026-05-07 01:13 38.36381 -77.44793 8976 ft 273 kts
2026-05-07 01:13 38.38197 -77.44471 8952 ft 254 kts 360°
2026-05-07 01:13 38.39881 -77.44200 8956 ft 235 kts 358°
2026-05-07 01:13 38.41463 -77.43977 8971 ft 226 kts 356°
2026-05-07 01:14 38.43053 -77.43766 8996 ft 233 kts 358°
2026-05-07 01:14 38.44663 -77.43513 8897 ft 233 kts 358°
2026-05-07 01:14 38.46260 -77.43244 8543 ft 232 kts 358°
2026-05-07 01:14 38.47862 -77.43102 8118 ft 228 kts 350°
2026-05-07 01:15 38.49423 -77.43151 7764 ft 221 kts 349°
2026-05-07 01:15 38.50964 -77.43211 7278 ft 222 kts 349°
2026-05-07 01:15 38.52495 -77.43277 6869 ft 218 kts 349°
2026-05-07 01:15 38.53995 -77.43336 6466 ft 215 kts 348°
2026-05-07 01:16 38.55449 -77.43477 6023 ft 211 kts 351°
2026-05-07 01:16 38.56939 -77.43498 5526 ft 216 kts 351°
2026-05-07 01:16 38.58421 -77.43509 5227 ft 213 kts 351°
2026-05-07 01:16 38.59913 -77.43525 4949 ft 210 kts 352°
2026-05-07 01:17 38.61348 -77.43545 4630 ft 209 kts 352°
2026-05-07 01:17 38.62804 -77.43568 4260 ft 210 kts 352°
2026-05-07 01:17 38.64257 -77.43593 3903 ft 210 kts 353°
2026-05-07 01:17 38.65714 -77.43618 3600 ft 208 kts 353°
2026-05-07 01:18 38.67155 -77.43644 3187 ft 210 kts 352°
2026-05-07 01:18 38.68594 -77.43670 3059 ft 203 kts 357°
2026-05-07 01:18 38.69964 -77.43692 2997 ft 192 kts 356°
2026-05-07 01:18 38.71282 -77.43715 3003 ft 188 kts 356°
2026-05-07 01:19 38.72580 -77.43738 3007 ft 186 kts 354°
2026-05-07 01:19 38.73875 -77.43762 3018 ft 188 kts 355°
2026-05-07 01:19 38.75193 -77.43788 3018 ft 191 kts 355°
2026-05-07 01:19 38.76528 -77.43812 3012 ft 193 kts 356°
2026-05-07 01:20 38.77878 -77.43838 3003 ft 192 kts 356°
2026-05-07 01:20 38.79203 -77.43844 2991 ft 190 kts 355°
2026-05-07 01:20 38.80497 -77.43827 2991 ft 188 kts 356°
2026-05-07 01:20 38.81819 -77.43805 2616 ft 198 kts 358°
2026-05-07 01:21 38.83197 -77.43783 2159 ft 193 kts 359°
2026-05-07 01:21 38.84481 -77.43762 1893 ft 178 kts 359°
2026-05-07 01:21 38.85674 -77.43744 1659 ft 165 kts 358°
2026-05-07 01:21 38.86752 -77.43729 1493 ft 142 kts 358°
2026-05-07 01:22 38.87646 -77.43716 1222 ft 119 kts 359°
2026-05-07 01:22 38.88486 -77.43690 1076 ft 120 kts 359°
2026-05-07 01:22 38.89328 -77.43691 897 ft 123 kts 357°
2026-05-07 01:22 38.90189 -77.43673 780 ft 125 kts 356°
2026-05-07 01:23 38.91068 -77.43662 616 ft 124 kts 356°
2026-05-07 01:23 38.91897 -77.43640 439 ft 116 kts 355°
2026-05-07 01:23 38.92700 -77.43637 302 ft 112 kts 356°
2026-05-07 01:23 38.93327 -77.43631 298 ft 68 kts 358°
2026-05-07 01:24 38.93495 -77.43692 302 ft 4 kts 332°
2026-05-07 01:24 38.93593 -77.43761 302 ft 24 kts 330°
2026-05-07 01:24 38.93626 -77.43787 299 ft 0 kts 329°
2026-05-07 01:25 38.93627 -77.43787 299 ft 0 kts 329°
2026-05-07 01:25 38.93645 -77.43802 299 ft 7 kts 327°
2026-05-07 01:25 38.93687 -77.43835 299 ft 7 kts 329°
2026-05-07 01:25 38.93742 -77.43860 300 ft 12 kts 341°
2026-05-07 01:26 38.93853 -77.43871 299 ft 20 kts
2026-05-07 01:26 38.94008 -77.43868 301 ft 22 kts
2026-05-07 01:26 38.94160 -77.43866 300 ft 22 kts
2026-05-07 01:26 38.94309 -77.43865 299 ft 21 kts
2026-05-07 01:27 38.94453 -77.43862 301 ft 20 kts
2026-05-07 01:27 38.94593 -77.43861 299 ft 20 kts 351°
2026-05-07 01:27 38.94642 -77.43903 299 ft 9 kts 289°
2026-05-07 01:27 38.94649 -77.44004 299 ft 12 kts 274°
2026-05-07 01:28 38.94652 -77.44113 302 ft 12 kts 270°
2026-05-07 01:28 38.94652 -77.44219 299 ft 12 kts 270°
2026-05-07 01:28 38.94652 -77.44329 302 ft 13 kts 270°
2026-05-07 01:28 38.94653 -77.44440 299 ft 12 kts 270°
2026-05-07 01:29 38.94655 -77.44547 301 ft 12 kts 271°
2026-05-07 01:29 38.94657 -77.44651 299 ft 11 kts 269°
2026-05-07 01:29 38.94656 -77.44752 299 ft 11 kts 269°
2026-05-07 01:29 38.94657 -77.44849 299 ft 11 kts 273°
2026-05-07 01:30 38.94660 -77.44943 299 ft 10 kts 270°
2026-05-07 01:30 38.94646 -77.45017 301 ft 4 kts 228°
2026-05-07 01:30 38.94622 -77.45030 300 ft 4 kts 192°
2026-05-07 01:30 38.94587 -77.45029 299 ft 3 kts 176°
2026-05-07 01:31 38.94576 -77.45028 299 ft 0 kts 177°